TimeMDT,TemperatureF,Dew PointF,Humidity,Sea Level PressureIn,VisibilityMPH,Wind Direction,Wind SpeedMPH,Gust SpeedMPH,PrecipitationIn,Events,Conditions,WindDirDegrees,DateUTC
12:53 AM,57.0,41.0,55,29.91,10.0,NE,3.5,-,N/A,,Clear,50,2013-09-02 06:53:00
1:53 AM,57.9,41.0,53,29.91,9.0,NNE,3.5,-,N/A,,Clear,30,2013-09-02 07:53:00
2:53 AM,59.0,41.0,51,29.89,9.0,NE,5.8,-,N/A,,Clear,50,2013-09-02 08:53:00
3:53 AM,57.0,42.1,57,29.89,10.0,ENE,5.8,-,N/A,,Clear,70,2013-09-02 09:53:00
4:53 AM,57.9,39.9,51,29.88,10.0,NE,4.6,-,0.00,,Scattered Clouds,40,2013-09-02 10:53:00
5:53 AM,57.9,42.1,56,29.88,10.0,NE,4.6,-,N/A,,Mostly Cloudy,40,2013-09-02 11:53:00
6:53 AM,59.0,42.1,53,29.89,10.0,Calm,Calm,-,N/A,,Overcast,0,2013-09-02 12:53:00
7:53 AM,59.0,44.1,58,29.93,10.0,Calm,Calm,-,N/A,,Partly Cloudy,0,2013-09-02 13:53:00
8:53 AM,61.0,46.0,58,29.96,10.0,Calm,Calm,-,N/A,,Overcast,0,2013-09-02 14:53:00
9:53 AM,70.0,46.0,42,29.97,10.0,South,12.7,18.4,N/A,,Clear,190,2013-09-02 15:53:00
10:53 AM,70.0,55.0,59,30.00,10.0,South,9.2,-,0.00,,Overcast,190,2013-09-02 16:53:00
11:53 AM,70.0,53.1,55,30.02,10.0,South,8.1,-,N/A,,Overcast,180,2013-09-02 17:53:00
12:53 PM,64.9,55.9,73,30.04,10.0,South,5.8,-,0.00,Rain,Light Rain,180,2013-09-02 18:53:00
1:53 PM,64.9,61.0,87,30.04,10.0,SSW,3.5,-,0.02,Rain,Light Rain,210,2013-09-02 19:53:00
2:53 PM,66.0,61.0,84,30.03,10.0,Calm,Calm,-,0.00,,Overcast,0,2013-09-02 20:53:00
3:53 PM,68.0,57.0,68,30.02,10.0,Variable,3.5,-,N/A,,Overcast,0,2013-09-02 21:53:00
4:53 PM,71.1,55.9,59,30.00,10.0,ESE,8.1,-,N/A,,Scattered Clouds,120,2013-09-02 22:53:00
5:53 PM,72.0,55.9,57,29.99,10.0,East,3.5,-,N/A,,Scattered Clouds,80,2013-09-02 23:53:00
6:53 PM,72.0,54.0,53,29.97,10.0,ENE,3.5,-,N/A,,Clear,70,2013-09-03 00:53:00
7:53 PM,70.0,54.0,57,29.98,10.0,Calm,Calm,-,N/A,,Clear,0,2013-09-03 01:53:00
8:53 PM,66.0,55.9,70,30.00,10.0,South,3.5,-,N/A,,Clear,190,2013-09-03 02:53:00
9:53 PM,62.1,57.9,86,30.01,10.0,Calm,Calm,-,N/A,,Clear,0,2013-09-03 03:53:00
10:53 PM,60.1,57.0,90,30.02,10.0,North,3.5,-,N/A,,Clear,10,2013-09-03 04:53:00
11:53 PM,59.0,55.9,90,30.03,10.0,ENE,3.5,-,N/A,,Clear,70,2013-09-03 05:53:00